Regional Weather Roundup
Issued by NWS

Home | Current Version | Previous Version | Text Only | Print | Product List | Glossary Off
Versions: 1 2 3 4 5 6 7 8 9 10 11 12 13 14 15 16 17 18 19 20 21 22 23 24 25 26 27 28 29 30 31 32 33 34 35 36 37 38 39 40 41 42 43 44 45 46 47 48 49 50

000
ASUS43 KOAX 012110
RWRNE

WEATHER ROUNDUP FOR NEBRASKA
NATIONAL WEATHER SERVICE OMAHA NE
300 PM CST SUN MAR 01 2015

NOTES: SATELLITE DATA IS BEING USED TO AUGMENT CLOUD COVER ABOVE
       12000 FEET.
       "FAIR" INDICATES FEW OR NO CLOUDS BELOW 12,000 FEET WITH NO
       SIGNIFICANT WEATHER AND/OR OBSTRUCTIONS TO VISIBILITY.

  * THESE STATIONS DO NOT REPORT WEATHER SUCH AS RAIN...SNOW OR FOG.

NEZ001>004-019>022-054>056-012200-
NEBRASKA PANHANDLE

CITY           SKY/WX    TMP DP  RH WIND       PRES   REMARKS
SCOTTSBLUFF    CLOUDY    34  12  40 VRB5      30.25F WCI  30
ALLIANCE       SUNNY     33   9  36 W10       30.23F WCI  25
CHADRON        SUNNY     35  11  36 NW18G24   30.25F WCI  24
KIMBALL        PTSUNNY   28  14  56 N9        30.20S WCI  19
SIDNEY         PTSUNNY   33  14  45 NE8       30.24F WCI  26
$$

NEZ057>060-069>072-079>082-012200-
SOUTHWEST NEBRASKA

CITY           SKY/WX    TMP DP  RH WIND       PRES   REMARKS
NORTH PLATTE   SUNNY     39  12  33 W10G16    30.28F WCI  32
IMPERIAL         N/A     37  11  34 N10       30.27F WCI  30
LEXINGTON      SUNNY     39  11  31 N7        30.30F WCI  34
MCCOOK         SUNNY     40  11  30 NE7       30.29F
OGALLALA       SUNNY     36  13  39 N13       30.27S WCI  27
$$

NEZ005>010-023>029-035>040-094-012200-
NORTH CENTRAL NEBRASKA

CITY           SKY/WX    TMP DP  RH WIND       PRES   REMARKS
VALENTINE      PTSUNNY   35   8  32 NW16G23   30.27F WCI  25
AINSWORTH      PTSUNNY   34   8  34 NW13G25   30.28F WCI  25
BROKEN BOW     SUNNY     39  14  36 NW12      30.29F WCI  32
O`NEILL        MOSUNNY   37   9  31 NW10G21   30.30S WCI  30
ORD            SUNNY     37  12  35 W7        30.30F WCI  32
THEDFORD       MOSUNNY   37  11  34 NW13G18   30.28S WCI  28
$$

NEZ041-046>049-061>064-073>077-083>087-012200-
SOUTH CENTRAL NEBRASKA

CITY           SKY/WX    TMP DP  RH WIND       PRES   REMARKS
GRAND ISLAND   SUNNY     39  12  33 W8        30.33F WCI  33
AURORA         SUNNY     39  11  31 NW8       30.32S WCI  33
HASTINGS       SUNNY     39  10  30 NW7       30.31F WCI  34
HEBRON         MOSUNNY   38  16  39 CALM      30.35S
HOLDREGE       SUNNY     38  10  30 N7        30.30F WCI  33
KEARNEY *      SUNNY     37  10  32 N10       30.31F WCI  30
YORK           SUNNY     37  12  35 NW7       30.33F WCI  32
$$

NEZ011>018-030>034-042>045-012200-
NORTHEAST NEBRASKA

CITY           SKY/WX    TMP DP  RH WIND       PRES   REMARKS
NORFOLK        MOSUNNY   38  13  35 NW18G24   30.31S WCI  28
ALBION         SUNNY     39  11  32 NW15      30.31S WCI  30
BLAIR          SUNNY     38  15  40 W9        30.33S WCI  31
COLUMBUS *     SUNNY     39  14  35 NW13G20   30.34F WCI  32
FREMONT        SUNNY     41  14  32 NW12G18   30.34S
TEKAMAH        SUNNY     39  17  41 NW16      30.34F WCI  30
WAYNE          MOSUNNY   37  11  34 NW12G23   30.33S WCI  29
$$

NEZ050>053-065>068-078-088>093-012200-
SOUTHEAST NEBRASKA

CITY           SKY/WX    TMP DP  RH WIND       PRES   REMARKS
LINCOLN        SUNNY     40  15  36 NW9       30.36S WCI  34
OMAHA EPPLEY   MOSUNNY   39  16  39 VRB6      30.35F WCI  35
BEATRICE       SUNNY     37  20  50 N7        30.35S WCI  32
FALLS CITY     MOSUNNY   37  19  48 NW6       30.36F WCI  32
NEBRASKA CITY  SUNNY     37  12  35 NW7       30.35S WCI  32
PLATTSMOUTH    SUNNY     37  12  36 NW6       30.35R WCI  32
$$

NEZ044-045-051>053-067-012200-
OMAHA AREA

CITY           SKY/WX    TMP DP  RH WIND       PRES   REMARKS
OMAHA EPPLEY   MOSUNNY   39  16  39 VRB6      30.35F WCI  35
BLAIR          SUNNY     38  15  40 W9        30.33S WCI  31
FREMONT        SUNNY     41  14  32 NW12G18   30.34S
MILLARD        SUNNY     38  14  37 W7        30.35S WCI  33
OFFUTT AFB     SUNNY     37  15  41 VRB3      30.35S
PLATTSMOUTH    SUNNY     37  12  36 NW6       30.35R WCI  32
WAHOO          FAIR      40  12  32 W9        30.35S WCI  33
$$


USA.gov is the U.S. government's official web portal to all federal, state and local government web resources and services.